Theta_e
299 299 299 299 300 301 301 301 302 301 302 304 305 305 306 307 307 306 307 309 308 307 306 305 303 302 301 300 298 299 299 299 298 299 299 299 300 300 301 301 302 303 304 305 305 305 305 306 306 305 306 305 305 304 305 306 307 308 308 307 306 304 303 304 304 305 307 304 307 310 310 309 306 306 305 306 307 306 306 306 305 305 305 305 305
298 298 298 299 300 301 301 301 302 301 301 303 303 304 305 306 306 306 306 307 307 306 305 304 303 302 300 298 298 298 298 297 296 297 297 298 297 298 298 299 299 300 300 302 302 303 303 303 303 303 303 303 303 303 303 303 304 304 306 306 306 303 301 303 303 303 302 300 301 304 307 306 305 305 304 304 305 306 307 305 305 305 303 303 303
297 298 298 299 300 300 301 300 300 300 300 301 302 303 304 304 304 304 305 305 305 305 303 301 301 301 300 298 297 296 297 297 296 296 296 295 295 296 296 296 297 297 298 298 299 300 300 301 301 301 302 302 301 300 301 301 301 301 302 303 303 303 302 302 301 301 298 300 303 302 301 300 302 303 302 303 303 305 305 304 304 303 301 299 300
296 296 297 299 300 300 300 299 299 299 300 300 301 301 302 302 303 303 303 303 303 302 301 301 300 299 299 298 298 297 295 296 295 295 294 294 293 294 294 295 295 295 295 296 296 297 297 297 297 298 298 298 297 296 297 297 297 298 300 300 301 298 299 299 300 299 299 298 295 296 299 301 298 299 296 302 303 303 301 301 302 301 299 298 299
296 297 297 297 298 299 299 299 300 299 299 299 299 300 301 302 303 303 302 302 301 300 299 299 298 297 297 297 297 296 296 295 294 292 292 292 292 292 292 293 294 293 294 294 294 294 295 295 295 294 295 295 294 293 293 294 294 295 296 297 297 296 294 297 297 297 297 299 297 295 295 294 293 293 295 299 298 299 299 299 301 298 296 294 296
297 296 297 298 298 297 298 298 298 298 297 297 298 300 301 302 302 303 302 302 300 300 300 300 299 298 297 296 295 294 292 292 290 289 290 290 290 291 292 292 292 292 293 293 293 293 293 293 294 293 293 293 293 293 292 292 293 293 294 294 294 295 293 292 292 295 295 295 296 295 295 292 290 292 292 289 293 303 297 298 299 296 295 294 295
297 297 297 296 297 297 298 298 298 297 296 297 298 299 301 301 302 302 301 301 302 302 302 301 300 300 299 297 295 293 290 290 291 291 290 290 290 290 290 291 292 291 292 292 292 292 293 293 293 292 292 292 292 292 291 291 292 292 293 292 292 293 293 290 290 290 291 292 293 293 294 295 296 292 287 288 285 290 292 295 298 296 294 293 294
295 295 296 296 297 297 297 297 296 296 296 296 297 298 299 299 300 300 300 300 300 300 300 300 298 296 295 294 293 292 291 289 290 290 290 290 289 289 290 290 291 291 291 291 292 291 292 292 292 291 291 291 290 290 290 291 291 292 292 292 292 291 291 290 289 290 287 288 291 290 291 292 293 294 294 288 285 283 285 295 295 296 292 293 294
295 295 295 296 296 296 295 294 294 294 295 296 296 296 297 297 298 298 297 297 297 297 297 297 297 295 294 293 291 291 291 290 290 291 290 290 289 289 289 289 289 290 291 291 291 291 291 291 291 291 290 290 290 291 290 291 290 290 290 290 291 290 290 290 289 289 288 288 288 289 289 288 289 290 290 290 285 283 283 285 285 289 291 294 293
296 296 295 295 295 294 294 294 293 293 293 294 295 295 296 296 296 296 295 296 296 296 296 295 295 294 293 292 291 290 290 290 291 290 290 290 289 289 289 289 289 289 289 290 290 290 290 291 290 289 289 289 289 290 290 289 290 290 290 290 290 290 290 289 288 289 289 289 288 288 287 286 287 287 287 286 286 287 283 283 285 284 283 287 289
295 295 294 294 294 293 293 293 292 292 293 294 294 295 295 295 295 294 294 294 294 295 295 294 294 294 293 292 291 291 291 290 289 289 289 289 288 288 288 288 289 288 288 289 289 290 289 289 289 289 289 289 288 289 289 289 289 289 289 289 289 289 289 289 288 289 288 288 288 287 286 287 285 284 284 285 284 283 283 283 284 285 284 284 287
293 293 292 292 291 291 292 291 292 292 292 293 294 294 294 294 294 293 293 293 294 294 294 294 294 294 293 293 292 292 291 291 290 289 289 289 289 288 288 288 288 288 288 288 288 289 289 289 289 289 288 288 288 288 288 289 288 289 289 288 288 288 288 288 287 287 287 287 287 287 286 287 287 286 286 285 284 284 283 282 282 284 284 284 287
293 293 292 291 291 290 291 291 291 291 292 293 293 293 293 293 293 292 291 292 292 293 293 293 293 293 293 293 293 292 292 291 290 290 290 289 289 288 288 287 287 287 287 287 288 288 288 288 288 287 287 288 288 288 288 288 289 288 288 288 287 287 287 287 286 286 286 285 285 286 287 287 286 287 286 286 286 285 284 281 283 284 281 282 285
293 293 292 292 292 292 291 291 291 291 292 292 292 292 292 292 292 292 291 292 292 292 292 292 292 292 292 292 292 292 291 291 290 290 290 290 289 288 287 287 287 287 286 286 287 288 287 288 288 287 288 288 288 287 287 287 288 287 287 286 286 286 287 287 286 286 286 286 286 285 285 286 286 287 285 286 284 284 282 281 281 282 283 282 284
293 292 292 292 292 292 292 291 291 291 291 291 291 292 292 291 291 290 290 291 291 291 292 291 291 292 292 292 291 291 291 290 290 290 289 289 289 288 288 288 287 286 286 287 287 287 287 287 287 287 287 286 286 286 287 287 287 287 286 286 286 285 286 285 285 285 285 285 285 285 284 285 286 285 285 285 285 284 283 282 281 279 279 281 281
292 292 292 292 292 292 291 291 291 290 290 290 290 291 291 291 291 290 290 290 291 291 291 291 291 291 291 291 290 290 290 290 290 290 289 289 289 288 287 287 287 286 287 287 286 287 286 286 286 286 286 286 286 285 285 285 286 285 285 285 284 286 284 285 284 284 284 284 284 284 283 284 285 285 285 284 284 284 284 284 283 281 278 276 280
291 291 291 291 291 291 291 290 290 290 289 290 290 291 291 290 290 290 290 290 290 290 290 290 290 290 290 290 290 290 289 289 289 289 289 289 289 288 288 287 287 287 286 286 286 286 286 286 286 285 285 285 285 285 285 284 285 285 284 284 284 284 284 285 285 284 284 284 284 284 283 283 284 284 284 284 284 283 284 283 283 281 281 278 276
292 292 292 292 291 291 290 290 290 289 289 289 290 291 291 291 290 289 289 289 290 290 290 290 290 289 289 290 290 290 289 289 289 288 289 288 287 287 287 287 286 286 286 286 286 285 285 285 285 285 285 285 284 284 284 284 285 284 284 284 284 283 283 284 284 284 283 283 283 283 283 283 283 283 283 283 283 283 282 283 282 282 282 279 278
292 292 292 291 291 291 290 289 289 289 289 289 290 290 290 290 290 290 289 289 289 290 290 290 290 290 290 289 289 289 289 289 289 288 288 288 287 287 286 286 286 286 286 286 285 285 285 285 285 284 284 284 284 283 283 283 284 283 283 283 283 282 282 282 283 283 283 282 282 281 282 281 282 282 282 282 282 282 282 282 282 282 281 281 279
292 292 292 292 291 290 290 289 289 288 288 289 289 289 289 289 289 289 289 289 289 289 288 288 289 289 289 288 288 289 288 288 288 288 288 287 287 287 286 286 286 286 285 285 285 284 284 283 283 283 283 283 283 282 282 282 282 282 282 282 281 281 280 280 281 282 282 282 281 280 281 280 281 281 281 281 281 281 282 281 281 281 281 281 280
293 292 292 292 291 290 290 289 289 288 289 288 288 288 289 289 289 289 288 287 288 288 288 288 288 288 287 287 287 287 287 287 288 288 287 287 286 286 286 286 285 285 285 284 283 283 283 283 282 282 282 281 281 281 281 281 281 280 280 280 280 280 279 279 280 280 281 281 280 279 279 280 281 280 280 280 280 280 280 280 280 280 280 280 279
293 293 292 292 291 290 290 289 288 287 287 287 288 288 288 288 288 288 288 287 287 287 288 287 287 287 287 287 287 287 287 287 287 286 286 286 286 285 285 285 284 284 284 283 282 282 282 281 281 281 281 281 280 280 280 280 279 279 279 280 280 279 278 278 278 278 279 280 279 278 279 279 280 279 279 278 279 279 279 279 279 279 278 278 279
293 293 292 292 291 290 289 288 287 287 287 287 287 287 287 287 288 288 287 287 288 288 288 288 287 287 286 286 286 286 286 286 286 286 285 285 284 284 284 283 283 282 282 282 281 281 281 280 280 280 280 280 279 279 279 279 278 278 278 278 279 278 277 277 277 278 278 278 278 278 278 278 279 277 277 278 278 278 278 278 277 278 277 277 278
294 294 293 292 291 290 288 287 287 286 286 286 286 287 287 287 288 287 287 287 287 288 287 287 287 286 286 286 285 285 285 285 285 285 284 284 283 283 283 282 282 282 281 281 281 280 280 279 279 279 279 278 278 278 278 278 278 277 277 277 277 277 277 277 277 277 277 277 277 277 277 277 277 276 276 277 277 277 277 276 276 276 276 276 277
293 293 292 291 290 288 287 287 287 286 286 286 286 287 287 287 287 287 287 288 287 288 287 287 286 285 285 285 284 285 284 284 284 284 283 283 282 282 281 281 281 280 280 280 280 279 278 279 279 278 278 278 277 277 277 277 277 277 276 276 276 277 277 277 277 277 278 277 277 277 277 277 276 275 276 276 276 275 276 275 275 276 276 276 276
293 293 291 290 289 289 288 287 287 286 286 286 286 287 287 287 287 288 287 287 287 287 287 286 285 285 284 284 284 284 284 284 284 283 282 282 281 281 280 280 280 280 279 279 278 278 278 277 278 277 277 277 277 276 276 276 276 276 276 276 276 277 277 277 277 277 277 277 277 276 276 276 276 275 275 275 275 275 275 275 275 275 275 275 275
293 292 291 290 289 288 288 287 287 287 287 287 286 286 286 287 287 287 287 287 287 286 286 285 285 284 284 284 284 284 284 284 283 283 282 281 280 280 279 279 279 278 278 278 278 277 278 277 277 277 276 276 276 276 276 276 276 275 275 276 277 277 277 277 277 277 277 277 277 277 276 276 275 275 275 275 275 274 274 274 274 274 274 274 273
292 290 290 289 289 288 288 287 287 287 287 287 287 287 286 286 286 287 287 287 287 286 285 285 284 284 284 284 284 285 285 284 283 282 281 280 279 279 278 278 278 277 277 277 277 276 277 276 276 276 276 275 275 275 275 275 275 275 276 277 277 277 277 277 277 277 277 277 277 277 276 276 276 276 275 275 274 274 274 273 274 274 273 273 272
289 290 290 290 289 288 288 288 288 287 287 286 286 286 287 287 287 287 287 286 286 285 285 284 284 284 284 285 285 285 284 283 282 281 280 279 278 278 278 277 277 277 277 276 276 276 275 275 275 275 274 275 274 274 275 274 274 275 276 276 276 276 276 276 276 276 277 277 276 276 276 276 276 277 277 276 276 276 274 272 273 273 273 272 272
289 290 290 290 290 290 289 289 288 287 287 286 286 286 286 286 286 286 286 286 286 285 285 284 284 284 285 285 285 284 282 281 280 279 279 278 278 277 277 276 276 276 276 275 275 275 275 275 274 274 274 274 274 274 274 274 274 275 276 276 276 276 276 275 275 275 276 276 276 276 276 277 277 276 276 276 276 276 276 275 274 273 273 272 271
290 290 290 290 291 291 291 289 288 287 287 286 286 286 286 286 286 286 286 286 286 285 285 284 284 285 285 285 283 282 281 280 280 279 279 278 277 277 276 276 275 275 274 274 274 274 274 274 274 273 273 274 274 274 274 275 276 277 276 275 275 275 275 275 275 275 274 275 275 276 275 275 275 275 274 275 275 275 276 276 276 276 275 273 271
289 290 290 290 290 291 290 289 288 288 287 287 286 286 286 286 286 286 286 286 285 285 284 284 285 285 285 284 283 282 281 280 279 279 278 278 277 276 275 274 274 273 273 273 273 273 274 273 273 273 273 273 273 274 275 275 276 276 277 276 275 275 275 275 275 275 275 275 275 274 274 274 274 274 273 273 274 275 275 275 275 275 275 275 275
290 290 290 290 290 291 291 290 289 288 288 287 287 287 286 286 286 286 286 285 285 285 285 284 285 285 284 283 283 282 281 280 279 278 277 276 275 275 274 273 273 273 273 272 273 273 272 273 272 272 272 272 273 274 275 275 275 276 276 276 275 275 274 274 274 274 274 274 273 273 273 273 273 274 274 273 273 272 274 275 275 275 275 275 275
292 291 291 291 291 291 291 291 291 290 289 289 289 287 287 287 287 287 286 285 285 284 284 284 284 284 284 283 283 281 281 280 278 277 276 275 274 274 274 273 273 272 272 272 272 272 272 272 271 271 271 272 272 273 274 275 275 275 276 276 275 274 274 274 274 274 274 273 272 272 272 272 273 273 273 273 272 272 272 272 273 273 273 274 276
291 291 291 292 292 292 292 291 291 291 291 290 289 288 288 287 286 286 286 285 285 284 284 284 284 284 284 283 282 281 280 279 277 276 275 274 274 274 273 273 272 272 272 271 271 270 271 270 270 270 270 270 271 273 274 274 275 275 275 276 274 274 274 274 274 273 273 272 272 272 272 271 272 272 272 273 273 273 273 273 273 273 273 273 273
292 292 292 292 292 292 292 291 292 292 291 290 289 289 287 286 286 285 285 285 284 284 284 284 284 284 283 283 282 281 280 278 276 275 274 274 273 273 272 272 272 272 272 272 272 271 270 269 269 268 268 268 269 273 273 274 274 274 275 274 273 273 272 272 272 272 272 272 272 272 272 272 272 272 273 275 275 274 274 273 273 273 273 274 274
293 293 293 293 293 293 292 292 291 290 290 289 289 288 287 286 285 285 285 285 284 284 284 284 284 284 283 283 282 281 280 278 276 274 273 274 273 272 272 272 271 272 271 270 270 269 269 268 267 267 267 267 268 270 272 273 273 274 274 272 272 271 271 271 272 272 272 272 272 272 272 272 272 272 274 276 277 277 274 274 274 274 274 274 274
292 291 291 291 291 291 291 290 289 289 289 289 289 288 287 286 286 285 285 284 284 283 284 284 284 284 284 283 282 281 279 277 276 274 273 274 274 273 272 271 270 270 271 270 269 268 268 268 267 266 266 266 266 269 271 272 273 273 273 272 271 271 271 271 271 272 272 272 273 274 274 273 272 273 276 277 278 277 275 275 274 274 273 273 275
290 289 288 288 289 289 288 288 288 287 288 288 288 287 286 286 285 285 285 284 284 284 284 284 284 284 283 282 281 281 280 278 276 275 274 273 273 272 271 270 270 270 270 269 268 268 267 266 266 265 266 266 265 267 270 271 272 272 272 271 271 270 270 270 271 271 272 272 272 273 274 275 275 275 277 278 279 277 275 275 275 275 274 273 274
287 288 289 287 287 286 286 286 286 286 287 287 287 286 286 285 285 285 284 284 284 284 285 285 285 284 283 282 281 279 279 277 276 275 274 273 272 271 269 269 268 269 269 268 267 267 265 265 266 265 264 265 265 265 267 270 271 272 273 272 271 270 270 270 271 271 271 272 272 273 274 276 277 277 278 278 278 279 276 276 275 273 272 271 274
286 285 286 285 285 286 285 285 286 286 286 285 286 285 285 285 284 283 283 284 285 285 285 284 284 283 282 281 280 279 277 277 276 274 273 272 271 270 269 267 267 268 268 267 266 265 264 264 264 265 264 264 264 264 265 269 271 272 273 273 271 271 270 270 270 271 271 272 272 273 274 276 277 277 278 278 278 278 278 275 274 272 272 274 276
285 284 284 284 284 285 285 285 286 285 284 284 285 284 284 284 283 283 283 285 285 285 285 284 283 282 281 279 277 277 276 275 274 272 270 269 269 269 268 266 267 267 265 264 264 264 264 264 265 265 264 264 265 266 265 268 271 272 273 274 272 271 272 271 271 271 272 272 272 273 273 275 277 277 277 278 277 277 277 274 272 275 276 276 273
283 283 284 284 284 284 285 285 284 283 283 283 283 283 283 283 282 283 284 284 284 284 284 283 282 280 278 276 275 274 273 272 271 270 269 268 267 266 266 265 266 265 264 263 263 263 264 264 265 266 266 265 265 266 269 267 270 272 273 273 274 273 275 274 272 272 272 272 273 274 274 276 276 277 276 276 276 276 274 272 275 275 275 275 272
284 284 283 284 285 285 285 285 283 282 282 282 282 282 282 282 282 285 284 283 283 282 281 280 278 277 276 274 273 272 271 270 269 269 268 268 266 265 264 265 264 264 264 263 265 264 264 265 265 266 267 267 267 266 268 270 270 272 273 274 274 275 275 274 273 272 273 273 273 274 274 276 276 276 275 275 275 273 272 273 273 273 273 271 268
284 284 284 283 285 285 285 284 282 281 281 281 282 281 281 280 283 284 283 282 281 279 278 277 276 275 274 273 271 270 269 268 267 267 267 267 265 264 264 265 264 264 266 266 267 267 266 266 267 267 267 267 267 267 267 270 271 272 273 274 274 275 275 276 273 274 274 274 275 276 276 275 274 274 274 273 271 270 271 272 272 272 270 266 265
283 283 282 282 283 283 283 283 282 280 280 279 280 281 280 281 283 283 282 280 278 276 275 275 275 274 273 271 269 268 266 266 266 266 267 268 266 264 266 266 265 265 265 266 267 268 267 266 266 267 267 267 268 268 268 268 270 271 272 273 274 274 274 275 275 274 275 276 276 275 274 274 272 271 269 268 267 267 270 271 270 269 266 265 264
282 283 282 281 281 281 281 281 282 281 279 279 278 280 281 282 281 282 279 277 275 275 274 274 274 273 271 269 268 267 266 265 264 266 266 267 267 266 266 267 266 266 266 266 267 267 266 266 266 266 267 267 267 267 268 268 269 269 270 271 272 272 274 274 274 274 274 273 273 272 271 272 272 271 270 270 269 269 267 266 266 265 265 264 264
283 283 282 281 280 280 280 281 281 283 280 278 278 278 279 280 279 278 276 274 273 273 274 274 273 272 270 267 267 266 265 265 264 264 265 266 267 266 266 267 267 267 267 267 266 266 266 267 267 267 266 266 267 267 268 268 269 269 270 271 271 272 272 272 273 273 272 271 269 270 269 267 266 265 265 264 265 265 265 265 264 264 264 265 265
283 282 281 281 280 280 281 281 282 283 282 279 278 277 277 277 277 274 273 273 273 272 273 273 271 270 269 267 267 267 266 266 264 263 265 266 266 266 266 267 268 269 269 268 268 268 267 268 268 267 267 266 267 267 268 271 270 272 271 271 271 272 272 272 273 274 269 268 268 266 265 265 264 263 263 263 264 264 264 264 262 262 263 263 263
283 282 281 280 280 280 280 280 281 282 281 280 279 278 277 277 276 273 272 272 272 272 271 272 271 270 269 267 267 267 266 267 265 264 264 264 266 269 268 267 266 269 271 272 271 268 268 267 267 267 268 267 267 268 271 273 273 274 275 275 275 275 275 274 275 274 269 267 265 264 264 263 263 262 262 263 263 263 262 262 263 265 264 262 263
282 280 279 278 279 279 279 279 280 279 280 280 279 278 276 275 274 273 271 272 271 272 272 272 271 270 269 268 267 267 266 266 266 265 264 264 264 266 270 271 270 269 270 271 272 272 272 271 268 266 268 271 271 272 273 274 274 274 275 275 275 275 275 275 274 269 267 265 264 263 263 263 263 262 262 262 263 262 262 262 262 262 262 262 263
Wind_Speed
4 3 2 3 3 2 2 2 3 3 2 4 5 4 6 5 6 7 4 6 6 7 7 7 7 7 8 8 9 8 8 8 9 9 9 9 10 10 11 10 10 10 10 9 8 8 7 7 8 8 8 8 8 8 8 9 8 7 5 6 7 7 8 8 9 8 4 4 4 2 2 5 5 3 5 5 4 3 3 3 4 4 5 5 4
4 4 4 3 3 3 3 3 3 3 4 4 4 4 4 5 5 5 4 5 5 5 5 6 5 5 7 7 8 7 7 8 8 8 9 9 11 11 10 10 11 11 10 10 10 9 9 9 9 9 9 8 9 9 10 9 9 9 7 4 6 7 7 9 9 9 5 6 5 3 4 6 5 4 6 6 5 3 3 4 4 5 7 6 5
6 5 5 4 4 4 3 4 3 3 4 4 4 4 4 4 4 4 5 5 6 6 6 7 7 7 8 8 9 9 9 9 9 9 9 10 11 11 11 11 11 11 11 11 9 10 10 9 9 8 9 8 8 9 9 10 9 10 10 8 4 6 6 7 10 10 7 9 4 3 1 1 3 3 7 6 5 5 4 4 5 6 8 7 6
8 7 6 6 5 5 4 4 4 4 4 4 4 4 3 3 4 5 5 5 5 6 8 9 11 11 11 11 10 10 9 9 10 10 10 10 11 10 10 10 11 10 11 11 9 10 10 9 8 8 9 9 8 9 9 10 10 10 10 10 8 6 6 7 9 10 9 9 6 5 3 3 1 3 10 3 4 6 7 7 5 5 6 7 5
8 8 7 6 6 5 5 4 4 4 4 4 4 3 3 4 4 5 5 6 6 7 9 10 11 11 11 12 11 12 10 9 9 9 9 9 9 10 10 10 10 10 11 11 10 10 10 9 8 8 8 8 8 8 8 9 9 9 10 9 10 8 7 6 7 10 11 10 7 6 5 5 6 7 10 1 7 5 7 7 4 6 7 7 5
9 9 8 7 6 5 5 5 4 4 4 4 3 4 5 5 5 6 6 6 7 9 9 8 8 9 9 9 9 8 9 7 8 8 8 8 8 7 9 10 10 10 9 10 10 9 9 9 9 8 8 7 7 7 7 7 9 9 9 8 9 10 7 7 7 7 8 9 9 8 6 4 6 8 6 4 9 1 4 4 4 6 6 6 5
7 8 8 8 7 7 7 5 5 5 4 4 3 4 5 5 6 6 5 5 4 5 6 7 7 6 7 8 8 9 10 8 8 8 8 8 8 9 8 8 9 9 9 9 8 8 8 8 8 8 8 8 7 7 8 8 7 8 7 8 8 7 8 7 8 7 5 8 7 7 6 4 4 5 5 6 6 4 5 2 2 3 4 5 5
9 9 9 8 8 8 8 6 5 5 5 4 4 4 6 6 6 6 5 5 3 3 4 4 6 7 9 10 9 9 9 10 9 8 8 8 9 8 8 8 8 8 8 9 8 8 8 8 8 8 8 8 7 8 8 8 7 7 8 8 8 7 8 7 7 7 7 6 7 7 6 5 4 3 3 5 6 9 8 2 3 1 4 2 3
10 10 10 10 9 7 7 6 5 6 4 4 4 4 5 5 5 6 6 5 4 5 5 6 7 8 8 9 10 9 10 9 8 8 8 7 9 8 8 8 8 9 9 8 8 8 8 8 8 8 8 8 7 7 7 8 9 8 9 8 8 7 7 7 6 6 6 6 6 6 6 6 5 4 4 4 5 7 8 7 9 5 3 2 2
9 10 10 9 8 6 5 6 6 5 4 4 5 5 5 5 6 7 6 5 5 6 7 9 8 8 9 9 12 10 9 9 8 8 8 7 8 8 7 7 7 8 8 9 9 9 9 8 8 9 8 7 7 7 7 8 8 8 8 8 8 7 6 6 6 5 4 5 5 4 5 5 4 4 4 6 5 5 8 10 9 11 11 5 4
9 10 10 9 7 7 6 7 7 6 5 5 5 5 5 5 6 7 6 5 6 7 8 8 7 8 8 10 11 12 10 10 9 8 7 7 8 8 8 7 7 7 7 7 8 8 8 8 8 7 7 7 7 7 7 7 6 6 6 6 7 7 5 5 6 6 5 4 5 4 4 4 4 5 5 5 6 6 8 8 8 8 9 11 5
11 10 10 10 9 8 7 8 8 7 6 6 5 5 6 6 6 8 7 6 6 7 7 8 7 8 9 10 11 10 10 8 9 9 8 8 8 8 7 7 7 7 7 6 7 7 6 6 6 6 7 6 7 6 6 6 5 5 5 5 5 6 6 5 5 5 6 4 4 4 4 3 3 3 4 5 5 6 7 9 8 8 8 7 7
11 10 10 10 9 10 9 9 8 8 7 7 7 6 6 7 8 9 8 7 6 7 8 8 8 8 9 9 9 8 9 9 9 9 7 7 7 7 7 7 6 6 6 6 7 7 6 6 6 6 6 6 5 6 5 6 5 5 5 5 5 5 5 5 4 5 5 5 4 4 3 3 3 3 3 4 4 5 6 8 7 7 10 10 7
10 10 10 9 9 9 8 8 7 7 8 7 7 6 6 7 8 9 8 7 7 8 8 8 8 8 8 8 9 8 9 8 7 7 7 7 6 7 7 7 7 7 6 6 5 5 6 6 5 6 5 5 5 5 5 5 5 4 5 5 5 4 4 4 3 4 3 4 4 4 4 4 3 3 4 4 5 5 5 7 8 7 7 9 7
9 9 9 9 9 9 8 8 7 7 8 7 7 6 7 7 8 9 9 8 8 8 7 8 8 8 8 8 8 8 8 7 7 6 7 7 7 8 7 7 6 6 6 5 5 5 5 5 5 5 5 5 5 5 4 4 5 4 4 4 4 4 4 4 3 3 3 4 4 4 4 4 3 3 3 4 4 4 5 6 7 10 9 6 7
9 9 9 9 9 9 8 8 7 7 9 7 8 7 7 7 9 9 9 9 8 8 7 8 8 7 8 9 8 8 7 7 7 6 7 7 8 7 8 7 6 6 5 5 5 4 4 4 4 4 4 4 4 4 4 4 4 3 3 3 3 2 3 3 3 3 3 4 3 4 4 4 4 3 4 4 4 4 5 5 6 6 8 11 8
9 9 9 11 9 8 8 8 8 8 8 8 8 7 8 9 9 10 9 8 9 8 8 8 8 9 8 8 8 8 8 8 8 8 8 7 7 7 7 7 7 6 5 4 4 4 3 3 3 3 3 3 3 3 3 3 3 2 3 2 3 4 3 2 2 2 4 3 3 3 4 4 4 4 4 4 4 5 5 5 5 6 6 8 10
10 9 9 10 9 10 9 7 8 8 8 9 9 7 7 7 9 11 10 10 9 9 8 8 9 9 9 9 8 7 7 8 8 8 7 7 7 7 6 6 6 5 4 3 4 4 3 3 3 3 3 3 3 3 3 3 3 2 2 2 2 3 4 3 2 2 3 3 3 4 4 4 4 4 4 5 4 5 5 5 5 6 5 7 8
12 11 10 11 10 10 9 9 8 8 8 8 8 7 7 7 8 9 11 9 9 7 8 7 7 6 6 7 8 7 7 7 7 7 6 7 7 6 7 6 6 5 5 4 4 4 3 3 3 3 3 3 3 3 3 3 3 3 3 2 3 4 4 4 3 3 3 3 4 4 4 4 4 4 5 5 4 4 5 5 6 6 6 7 8
12 12 11 11 11 11 10 10 10 10 9 8 8 7 8 8 9 9 8 8 8 8 7 8 6 6 7 7 7 7 7 7 6 6 6 6 7 7 6 6 6 5 5 5 5 4 4 4 3 4 3 3 3 4 3 4 3 3 3 3 3 4 4 4 4 4 3 3 4 5 5 4 5 5 5 5 5 5 5 5 5 6 6 6 7
13 12 12 12 11 11 10 9 8 8 7 7 8 9 9 8 9 9 10 10 9 8 8 7 7 7 8 8 8 7 7 6 6 6 6 6 6 6 5 5 5 5 5 5 5 5 4 4 4 3 3 3 3 3 3 3 3 3 3 3 4 4 4 4 4 5 4 4 4 5 5 4 4 5 5 5 6 6 5 5 5 6 6 6 6
13 12 12 11 11 11 10 9 8 8 8 9 9 9 9 9 9 9 9 9 10 9 8 8 7 8 8 8 8 7 6 6 7 6 6 6 5 5 5 6 6 5 5 5 5 4 4 3 2 2 2 2 2 2 2 2 3 3 3 2 3 4 5 5 5 5 5 4 4 5 6 5 4 5 6 6 6 6 6 7 6 6 7 7 6
14 13 11 11 11 12 11 12 11 11 10 10 9 9 9 9 9 9 9 9 9 9 8 8 8 8 9 8 8 7 7 7 7 6 6 6 5 5 5 5 5 5 5 5 4 4 3 2 1 1 1 1 1 1 2 2 2 3 3 4 4 4 5 5 5 5 5 5 5 5 6 5 4 6 6 6 6 7 6 6 7 7 8 8 7
11 10 9 10 11 11 10 12 12 11 11 11 9 9 9 9 9 9 10 10 9 8 8 8 8 9 9 9 8 8 8 7 7 6 7 6 5 5 4 5 5 5 5 4 4 2 1 1 1 1 1 0 1 1 2 2 2 3 3 4 4 4 4 5 5 5 5 5 5 6 5 5 6 6 6 6 6 6 6 7 8 7 8 8 8
12 12 12 11 11 12 12 12 12 11 10 11 10 10 10 10 9 10 9 10 9 9 9 9 9 10 9 9 9 8 8 8 7 7 7 6 6 5 4 5 5 5 4 4 3 2 1 2 1 1 0 0 1 1 2 2 3 3 3 4 4 4 4 5 5 5 5 5 5 6 6 6 6 6 7 6 6 7 7 7 8 7 7 8 7
14 12 12 13 12 10 10 12 11 11 11 11 10 10 10 10 10 9 10 10 10 9 9 10 9 10 9 10 9 9 9 9 8 8 8 6 6 5 5 4 4 4 4 3 3 2 2 1 1 1 1 0 0 1 2 2 3 3 3 4 4 4 5 5 5 5 5 5 5 6 6 6 6 6 7 7 7 8 7 7 8 8 8 8 9
15 13 9 8 9 13 13 12 11 11 11 10 11 12 11 10 11 10 10 10 10 10 10 9 9 10 10 10 9 9 9 9 8 8 7 6 6 6 5 5 4 4 3 3 3 2 1 2 2 1 1 1 1 2 2 2 3 3 4 4 5 5 5 5 5 5 6 6 6 6 6 6 6 6 7 7 7 8 7 8 8 8 8 8 9
7 8 10 14 12 11 13 13 12 11 11 11 11 11 11 11 11 10 10 10 8 10 10 10 10 10 10 10 9 9 9 8 8 7 7 6 6 6 5 4 4 4 4 3 3 2 2 2 2 2 1 0 1 2 2 2 3 3 4 4 5 5 5 6 6 6 6 6 6 6 6 6 6 6 5 6 7 8 7 8 8 8 8 8 9
13 12 13 13 13 15 14 13 13 13 14 13 12 12 10 10 10 11 10 11 10 10 10 10 10 10 10 10 9 8 8 7 8 7 7 7 7 6 5 5 4 4 3 3 2 2 3 3 3 2 2 1 1 2 1 1 2 3 4 5 5 5 5 6 6 6 6 6 6 6 6 6 6 7 11 11 11 10 9 9 8 8 9 9 9
15 15 15 14 13 12 14 14 13 15 14 14 13 12 12 12 12 11 11 10 10 11 11 11 11 11 10 10 9 7 7 7 7 7 7 7 7 6 6 5 5 4 4 3 3 3 4 4 3 2 2 1 2 2 2 2 3 3 4 5 5 6 6 6 7 7 7 7 7 7 6 9 10 11 11 13 13 12 12 10 9 9 9 9 9
13 13 12 13 13 12 13 13 14 15 15 14 12 12 11 12 11 12 12 12 11 11 12 11 11 11 10 10 8 8 7 8 7 7 5 7 7 6 5 4 4 5 4 4 4 5 5 4 3 2 2 2 3 3 4 5 5 7 6 5 5 6 6 7 7 7 7 7 7 7 6 7 8 9 8 10 10 12 13 14 15 14 12 10 9
13 14 13 13 13 13 13 14 14 14 14 13 12 12 12 13 13 13 12 11 11 12 12 12 11 11 10 10 8 8 8 8 6 5 5 5 5 5 5 4 4 4 4 4 5 6 5 4 3 3 3 3 4 4 6 6 7 7 7 6 5 6 6 6 7 8 7 7 7 7 6 5 6 6 7 8 10 12 12 13 14 14 13 14 14
13 14 15 14 14 13 12 12 11 12 13 14 13 11 12 14 14 14 12 12 13 13 13 12 11 11 10 9 9 8 7 6 5 5 5 5 5 5 5 5 5 4 4 4 6 6 5 4 4 4 4 4 4 6 7 7 7 8 8 7 6 6 6 7 8 8 9 8 7 7 6 6 6 9 8 7 8 8 10 13 14 15 14 14 15
9 10 11 10 9 9 10 11 11 11 12 12 14 16 15 14 14 13 14 13 13 13 13 13 12 11 9 9 8 8 8 6 5 5 5 5 5 5 5 4 4 4 4 5 5 5 4 4 4 4 4 4 5 6 7 8 7 8 8 7 6 7 7 8 9 9 8 7 7 7 7 7 7 7 7 8 8 8 10 10 10 10 11 15 18
9 9 10 10 11 10 10 10 11 12 12 11 12 11 10 10 11 12 12 12 12 13 12 12 12 10 10 9 9 6 7 8 7 6 5 5 5 5 5 5 5 5 6 6 5 5 4 3 3 3 4 4 5 7 8 8 8 8 8 7 6 6 7 7 8 8 8 8 8 8 8 8 8 8 7 9 10 11 10 9 10 11 11 13 13
9 10 10 10 10 10 10 11 9 10 10 11 11 10 10 11 10 12 11 11 12 12 13 13 12 11 11 10 9 10 10 7 7 6 6 6 6 6 6 5 5 4 4 4 3 4 4 4 3 3 3 5 6 8 8 8 8 8 8 6 5 6 6 7 7 8 8 8 7 8 8 8 8 9 11 15 15 12 11 11 12 13 11 12 13
6 7 7 6 7 8 8 7 8 9 9 9 9 9 10 10 10 10 11 11 11 12 14 14 10 13 13 11 9 12 12 12 9 9 10 8 7 7 5 5 4 5 5 5 4 3 3 4 4 4 4 4 4 6 7 7 7 8 7 5 5 5 6 7 8 8 8 8 8 8 8 8 10 10 13 17 17 18 12 12 13 13 12 11 10
6 6 6 6 5 6 6 7 8 8 8 8 8 10 10 10 10 10 11 11 11 13 13 13 13 12 13 14 13 13 13 12 11 14 13 8 4 3 5 5 5 5 5 5 4 3 3 3 4 5 5 4 5 6 7 7 8 8 7 5 5 5 7 7 7 8 7 8 9 13 12 11 12 12 16 18 19 16 11 12 13 15 16 14 13
5 6 7 7 7 7 8 7 8 9 8 8 9 10 9 9 9 10 11 10 13 13 13 14 15 14 13 13 12 12 12 12 13 13 12 11 9 7 4 4 4 3 3 3 3 3 3 3 3 4 6 6 5 7 8 8 8 7 6 5 5 5 6 6 6 7 7 7 8 9 13 13 12 14 18 18 20 17 12 13 12 12 13 13 11
5 4 4 6 7 8 7 8 8 8 8 9 9 9 8 10 10 9 10 11 14 14 14 13 12 11 12 11 11 12 12 12 13 11 9 9 4 4 5 5 3 3 3 3 3 2 3 3 3 4 4 5 6 5 5 8 8 8 9 6 5 5 6 7 6 6 7 7 8 9 10 12 15 16 17 19 20 22 15 13 12 12 13 14 12
6 5 6 6 6 6 7 7 6 7 8 8 8 8 8 8 9 9 11 13 13 8 10 10 11 10 10 11 10 11 12 11 10 10 8 7 5 6 5 5 4 3 3 3 3 2 2 2 3 4 4 5 6 5 7 10 10 10 10 9 6 7 7 6 6 7 7 7 7 7 8 12 15 17 18 20 22 22 21 14 12 11 12 16 19
5 6 6 5 5 5 5 5 5 7 7 7 8 9 8 9 8 10 14 12 7 7 10 9 9 10 9 9 10 9 9 9 7 8 9 8 4 4 5 5 4 4 4 3 3 2 3 4 4 5 5 5 7 11 6 9 11 11 11 12 7 7 8 7 7 7 7 7 7 7 7 11 16 17 19 21 22 22 23 13 13 19 22 23 15
6 5 5 5 5 5 5 6 5 6 5 5 8 9 8 7 10 15 12 7 9 9 10 8 8 8 8 9 9 10 9 7 9 10 11 10 6 6 6 5 4 4 4 4 4 3 3 4 4 5 5 5 5 6 12 8 11 11 11 12 13 10 12 9 8 8 8 8 7 8 9 13 16 19 20 21 21 23 18 11 19 20 20 21 16
4 5 7 6 5 5 5 5 5 5 4 6 9 9 8 9 13 14 8 6 6 6 6 7 7 8 8 8 9 8 8 8 9 10 9 10 9 7 5 4 4 4 4 4 4 5 4 5 5 5 5 5 5 5 8 12 9 11 11 12 12 13 13 9 8 8 7 8 7 7 8 16 18 19 21 21 21 18 12 17 17 18 18 16 7
6 5 7 5 7 8 7 6 5 7 5 7 8 10 10 11 13 8 7 8 7 6 8 8 9 9 9 8 7 8 8 8 8 10 11 8 9 8 6 5 5 5 5 5 5 5 6 5 5 5 4 4 5 5 5 8 11 10 12 12 12 13 12 13 9 8 8 7 9 13 16 17 17 19 20 18 13 12 14 15 17 16 14 5 5
4 5 7 5 2 1 3 4 5 6 5 6 8 8 11 14 11 7 6 6 7 8 9 10 9 9 9 8 9 7 7 7 8 3 5 3 6 7 6 6 6 6 6 6 5 5 4 4 4 4 4 4 4 4 5 5 6 8 9 10 11 11 12 13 13 10 13 14 13 13 16 17 15 14 10 7 8 8 14 16 14 12 5 4 4
5 7 6 4 4 4 4 4 6 5 7 6 8 9 11 5 2 4 5 6 7 9 9 8 9 8 7 8 11 8 6 6 5 4 4 4 5 5 5 5 6 6 6 6 6 6 5 5 5 4 4 4 4 5 5 4 5 5 5 6 6 7 10 11 9 8 8 6 7 8 8 14 13 16 14 13 12 11 8 6 4 4 4 4 4
7 5 4 4 4 6 7 6 8 8 6 8 8 11 11 7 2 3 5 7 8 9 10 10 10 8 7 9 9 10 9 5 7 6 7 6 5 7 8 8 9 8 7 6 6 5 6 6 4 4 4 4 5 5 5 5 5 6 6 6 6 6 6 6 6 4 3 2 2 5 8 5 4 4 4 3 3 3 5 5 3 3 4 5 7
5 5 7 8 8 8 9 9 10 7 6 8 10 10 10 9 6 4 5 8 9 9 8 6 5 5 5 4 4 6 6 6 5 5 4 5 6 7 8 5 6 3 4 5 5 5 5 4 4 5 5 4 4 5 5 7 7 9 8 6 5 5 5 6 6 7 5 3 2 2 3 3 3 3 3 3 3 3 3 4 4 4 3 4 3
5 4 5 5 5 7 7 8 9 5 4 7 9 9 7 6 5 5 6 8 8 7 7 7 6 5 4 5 5 5 4 5 4 6 5 3 5 8 6 4 3 8 11 9 7 4 3 4 4 3 4 5 4 2 6 10 12 14 14 14 11 11 12 9 12 5 5 0 1 3 3 3 3 2 3 3 3 3 4 5 4 6 5 3 4
5 4 4 6 7 5 5 6 8 4 5 6 6 4 4 4 5 6 7 6 4 4 3 3 5 6 9 7 4 4 5 4 4 4 4 4 3 6 13 14 11 9 11 14 14 13 11 10 7 4 6 11 11 12 13 14 15 15 15 14 13 13 14 13 3 4 1 1 2 3 4 3 3 3 3 3 3 4 4 4 5 5 4 4 5
Wind_Direction
126 133 120 112 112 100 101 95 97 85 80 91 91 77 82 96 99 87 90 111 109 104 97 100 99 95 84 80 80 72 68 65 59 51 46 40 32 33 33 31 28 30 31 38 46 55 56 52 52 52 50 48 47 44 36 32 24 18 47 47 38 40 27 9 357 325 323 338 327 253 143 97 92 121 81 24 33 45 47 47 53 47 31 16 9
157 162 152 148 120 123 125 110 134 120 79 86 85 78 80 90 100 101 90 89 88 94 98 89 80 87 99 93 90 77 73 68 64 52 49 44 38 35 33 30 30 31 26 29 37 42 46 46 43 41 42 44 44 42 36 31 26 23 6 73 59 50 43 14 8 349 15 349 332 339 154 111 107 100 34 13 72 64 64 51 48 46 35 14 4
173 169 166 144 134 135 124 119 110 96 94 82 82 90 84 82 88 93 91 96 97 102 102 98 97 94 98 98 98 93 79 79 77 70 62 55 46 40 37 35 31 30 29 27 29 32 41 46 46 43 43 43 47 42 36 35 27 24 24 14 45 62 58 32 22 17 3 333 305 298 72 182 123 121 17 20 86 46 48 61 40 30 36 15 356
175 173 175 158 155 145 138 140 134 129 118 108 99 89 88 85 87 96 93 92 95 93 100 100 100 100 95 99 97 97 98 90 84 74 68 63 56 49 45 41 40 40 34 34 36 36 38 45 47 45 45 44 46 46 38 35 28 25 25 23 16 44 37 45 32 25 21 4 17 341 303 296 238 69 3 356 65 36 47 21 35 32 31 8 354
171 168 167 166 161 156 157 144 143 135 118 103 94 100 100 98 93 90 88 90 96 105 106 109 107 102 103 104 104 103 98 94 89 76 71 68 66 52 47 47 45 44 39 37 36 38 37 40 45 47 47 45 48 49 46 37 32 29 26 31 26 27 36 33 46 38 31 24 21 2 1 8 23 343 333 249 41 6 40 15 30 36 25 2 341
169 169 168 169 164 149 146 152 144 129 112 85 79 96 107 103 100 94 93 95 104 113 119 120 118 123 128 124 117 109 99 90 84 89 81 71 70 69 59 53 54 51 48 45 42 41 41 41 44 49 49 46 46 50 49 44 34 32 27 30 30 22 35 35 31 40 45 32 32 43 21 12 342 331 338 333 346 32 35 1 11 31 16 353 328
165 162 159 163 163 160 157 154 145 125 106 97 98 96 97 99 98 101 102 101 100 121 133 135 133 127 114 110 110 111 108 95 97 95 97 94 88 81 76 66 62 64 57 52 49 46 46 42 46 49 49 49 45 47 44 41 39 32 28 34 34 27 25 45 35 19 31 37 27 30 25 22 356 358 355 326 324 337 327 312 41 36 9 344 315
166 166 164 165 166 169 161 147 138 122 117 118 108 101 99 100 100 102 104 106 99 108 112 108 107 99 100 100 101 104 106 113 109 102 100 100 97 90 85 76 68 65 62 54 50 46 45 46 44 46 48 46 46 46 41 35 34 31 31 29 33 33 29 32 33 28 27 16 10 16 12 2 357 20 1 350 320 317 326 356 139 20 353 321 316
167 165 164 162 163 162 148 140 119 117 120 116 108 99 95 98 104 109 111 108 100 96 101 101 104 108 107 109 103 101 107 108 110 109 107 106 102 98 92 88 78 67 61 59 51 47 45 44 42 43 42 41 41 43 41 36 36 33 27 28 25 31 34 25 28 28 26 18 1 4 4 3 347 360 356 2 333 318 309 324 318 321 310 256 340
161 159 158 158 155 143 134 131 129 118 116 110 108 109 109 114 118 117 110 112 113 108 103 101 104 108 110 113 116 118 120 117 115 115 111 109 103 100 92 85 78 71 61 53 51 46 42 41 41 41 41 38 36 36 35 35 33 35 34 33 26 29 32 33 32 14 18 23 4 354 0 355 349 351 353 348 327 303 307 315 321 325 323 324 318
156 153 150 145 142 144 151 148 136 129 128 132 123 126 129 128 127 118 112 113 116 113 110 107 106 111 116 122 122 123 121 121 121 116 115 110 103 97 90 83 78 74 68 57 50 45 48 45 44 43 41 39 36 33 31 30 29 30 31 36 35 30 24 26 33 24 8 21 9 6 2 2 347 341 339 341 327 316 312 309 315 312 312 313 315
154 151 150 146 146 153 160 151 151 148 145 139 139 138 138 135 134 124 119 121 117 114 111 109 113 116 117 119 118 119 123 122 118 116 114 109 106 103 98 92 84 81 73 65 50 45 49 48 47 49 44 39 37 35 28 25 27 32 32 29 29 29 25 22 27 27 12 8 12 3 358 348 342 345 338 327 321 315 312 304 307 314 303 291 306
157 156 154 159 163 164 167 158 153 155 155 151 150 146 141 142 141 134 129 126 119 120 113 115 118 117 118 116 114 113 111 112 112 113 115 110 106 104 102 96 92 82 70 65 53 45 49 46 44 42 41 37 35 30 27 22 20 35 33 33 31 28 26 17 29 15 16 3 358 342 349 339 339 347 329 319 314 309 305 302 301 311 300 302 299
158 157 158 161 162 164 166 159 159 157 155 155 151 148 142 141 142 133 129 125 122 117 118 119 113 113 112 112 111 111 110 109 109 109 107 105 104 100 96 94 88 81 75 68 55 54 54 52 52 51 43 37 33 30 26 24 15 30 35 29 26 24 16 10 32 11 7 3 347 344 343 328 328 342 330 320 320 322 312 311 309 304 291 293 298
153 154 159 162 163 163 161 161 160 159 157 153 154 150 146 143 141 136 132 131 130 126 125 119 112 110 110 110 108 109 110 108 104 106 108 107 102 99 95 93 93 90 84 80 71 66 64 59 51 50 43 38 31 25 17 26 14 20 35 31 25 20 359 9 360 9 353 352 341 347 330 314 336 341 330 320 319 313 313 311 314 315 312 298 305
155 156 160 163 163 161 157 160 160 161 160 159 159 152 150 144 140 139 138 136 134 132 128 123 117 114 111 109 107 106 106 105 106 105 103 101 101 99 99 96 98 98 92 88 78 70 68 70 66 58 52 45 37 32 19 19 9 17 24 19 16 7 333 349 347 341 342 330 321 335 321 321 328 333 326 314 311 312 304 304 307 305 312 313 315
161 166 167 164 160 162 162 165 165 165 164 165 160 156 151 144 143 139 139 138 138 135 128 123 120 117 112 109 111 114 117 117 115 111 106 103 104 104 102 101 100 97 98 92 85 80 71 75 76 71 54 47 37 33 24 11 347 14 21 6 15 352 332 326 339 336 338 324 331 329 316 317 319 333 313 314 314 302 302 302 297 298 307 300 309
163 163 164 165 164 166 168 169 170 167 162 161 156 150 144 144 147 142 144 144 142 135 131 129 127 120 120 120 118 116 112 111 113 115 113 112 109 109 116 113 101 103 111 117 119 117 107 86 84 77 67 51 43 32 14 4 344 8 360 3 29 343 332 334 331 345 333 333 324 329 318 316 329 327 319 310 298 301 296 296 297 300 294 286 293
170 172 169 172 171 172 172 170 163 165 162 157 151 144 141 143 146 148 148 146 140 135 132 126 123 120 123 121 119 115 113 112 115 118 119 123 122 118 112 115 126 133 133 130 122 116 107 99 86 69 60 52 41 37 13 5 352 11 351 6 22 356 338 330 329 348 337 332 330 323 323 323 331 325 317 312 310 304 303 301 300 295 289 284 287
172 174 174 174 174 174 172 169 166 165 160 158 151 147 149 148 148 146 138 134 132 130 132 130 123 122 120 117 115 116 116 120 124 128 124 119 117 120 125 127 123 120 118 114 103 93 82 74 62 58 45 41 32 24 14 1 350 10 351 1 350 340 333 324 333 339 331 323 322 325 324 327 325 324 316 315 313 309 305 300 297 292 287 283 279
175 175 174 174 171 171 168 167 163 156 156 153 156 160 156 153 155 150 147 145 142 141 139 132 129 127 129 128 125 125 124 124 126 122 119 120 123 125 125 122 119 109 109 102 93 83 74 67 60 51 45 32 27 15 3 353 350 349 343 349 331 333 330 325 328 325 325 331 327 319 316 318 323 318 317 313 308 305 305 298 294 291 289 287 288
175 173 171 166 166 165 163 159 156 159 162 163 163 165 160 162 158 151 149 153 150 147 144 138 138 139 137 133 132 131 132 131 129 124 122 130 133 127 126 122 110 104 99 93 88 80 73 62 67 61 46 46 19 8 347 352 341 332 332 333 320 323 320 320 323 320 327 326 322 315 314 316 324 316 307 302 299 302 301 295 292 295 292 292 294
174 171 167 164 165 166 166 165 165 169 168 167 168 170 166 165 159 161 158 159 155 149 143 140 141 144 142 140 139 142 141 139 135 138 140 136 129 124 123 118 111 108 96 86 81 83 78 85 102 75 78 46 15 356 339 334 324 321 318 317 316 314 315 314 316 316 318 317 314 312 308 314 317 308 301 298 298 296 296 298 300 298 293 294 296
167 165 156 157 163 159 160 167 169 172 170 173 172 172 168 170 167 163 164 159 155 149 146 145 146 147 147 149 151 149 147 148 149 147 144 135 128 119 114 109 106 103 100 92 90 94 127 128 143 139 90 69 10 347 316 314 309 312 312 309 310 311 305 303 303 306 309 310 304 302 303 313 308 299 299 299 298 302 305 300 296 294 293 295 296
170 165 162 158 162 168 171 171 172 171 171 174 175 175 174 174 167 166 166 161 155 155 153 153 155 154 157 158 157 157 159 160 156 148 143 135 130 122 113 109 107 105 102 117 125 131 176 170 147 139 151 119 357 317 305 304 308 306 303 303 301 303 299 299 298 294 296 294 294 293 297 302 301 298 297 299 301 303 296 299 296 299 298 298 300
177 166 161 171 176 169 169 172 172 175 172 175 175 177 178 174 171 166 164 163 164 159 161 158 161 159 162 165 163 165 167 165 156 148 146 141 131 126 121 110 114 116 122 128 139 165 158 197 161 161 198 237 281 306 300 300 301 304 301 297 294 294 296 293 290 287 285 288 282 286 290 290 292 292 293 298 300 300 306 300 302 302 305 303 301
179 172 166 157 169 181 176 173 174 173 172 175 176 178 177 173 169 171 169 166 166 165 165 165 165 165 168 171 172 173 171 163 157 151 147 141 135 127 124 124 123 132 143 155 153 156 193 171 211 168 207 219 282 291 291 296 299 300 296 291 290 292 289 288 285 285 283 276 279 281 283 281 281 285 291 296 308 309 304 304 307 310 310 308 306
149 145 170 183 182 173 174 174 172 176 174 174 178 178 176 172 171 170 172 169 171 169 168 170 169 171 175 176 176 175 168 161 153 147 146 140 132 130 131 133 136 155 155 159 162 175 195 189 202 195 182 220 273 276 284 293 300 303 299 297 302 294 289 286 284 283 280 276 274 275 273 275 274 277 291 305 306 302 305 304 304 305 306 307 306
184 190 191 184 179 184 182 182 180 174 175 176 175 177 173 172 174 174 177 176 170 169 172 174 174 176 179 178 174 172 160 146 144 146 146 145 140 137 142 144 155 159 152 149 156 182 211 205 192 194 197 227 253 257 257 307 324 317 312 304 295 290 289 288 286 281 275 273 273 273 273 270 276 283 286 284 281 288 296 295 297 299 302 302 299
197 196 191 189 187 174 184 182 177 177 175 176 175 175 178 177 178 178 181 178 173 178 176 178 180 181 179 176 170 154 149 142 148 150 153 149 142 144 150 155 160 163 156 155 169 199 213 212 194 191 199 212 235 239 207 234 262 277 294 289 288 283 282 282 285 284 280 274 270 271 274 276 278 280 280 281 281 281 281 283 287 293 294 295 296
202 199 195 194 193 183 178 178 178 178 179 178 176 174 175 179 181 181 183 182 177 179 182 182 183 182 180 170 159 153 149 155 153 155 155 149 148 151 157 159 162 159 163 164 186 201 208 203 193 189 212 229 229 230 225 244 259 271 277 277 277 280 278 279 278 279 280 281 279 276 278 281 281 278 277 281 288 288 286 288 288 286 284 285 292
197 195 194 191 190 183 178 181 179 177 176 176 174 174 176 185 186 187 185 180 181 184 183 184 184 181 178 163 156 151 155 159 153 156 152 152 143 149 156 161 163 165 175 174 197 202 200 194 191 204 220 232 242 237 240 251 262 269 267 270 274 274 275 273 275 277 278 278 282 287 285 282 279 279 285 289 286 285 285 284 291 290 286 281 276
190 189 193 192 190 187 179 176 172 174 179 180 171 171 186 191 191 191 179 183 186 184 185 186 185 184 172 162 162 158 161 157 158 148 151 140 142 153 161 164 173 175 172 184 202 193 197 192 195 210 225 239 245 247 243 252 261 265 269 272 269 268 271 271 272 272 275 279 284 286 287 283 284 286 283 281 284 289 292 293 297 294 286 280 274
180 184 185 183 179 180 182 179 178 177 179 180 182 192 196 192 189 184 184 187 185 185 186 189 186 184 164 161 162 164 167 160 144 147 154 157 161 173 168 166 161 167 188 195 195 190 191 195 201 210 227 242 252 247 247 254 261 265 271 271 267 269 270 271 270 270 275 279 281 285 288 287 287 290 290 291 295 296 297 296 293 285 277 270 268
168 171 175 179 181 178 178 178 179 180 183 185 191 193 185 181 181 184 186 183 184 183 186 188 190 177 165 172 170 157 164 149 147 152 160 168 169 170 164 170 168 183 191 196 190 187 193 191 199 211 232 248 252 251 253 258 262 270 273 274 269 268 266 265 265 269 273 275 278 279 279 281 285 288 288 290 295 295 291 282 275 268 261 264 260
175 174 175 170 172 173 177 183 179 176 180 181 183 174 174 181 177 184 181 181 180 186 193 193 190 181 176 174 169 179 179 157 157 160 166 175 175 174 166 171 170 187 195 194 192 173 179 183 198 207 227 249 257 255 255 258 264 271 277 277 269 266 265 267 266 267 268 276 279 276 278 282 284 284 288 292 293 295 291 283 277 274 263 260 257
151 154 155 155 159 166 173 160 164 171 171 178 172 170 177 175 178 185 181 180 182 190 197 196 189 185 189 184 167 184 182 176 157 163 178 182 170 174 169 167 166 189 190 196 186 174 175 178 193 206 221 245 259 266 264 264 266 273 281 277 267 266 265 264 266 270 272 274 272 276 282 283 288 287 289 292 294 296 292 285 286 285 275 267 259
116 95 95 116 132 137 145 152 159 169 171 167 166 171 173 175 177 170 171 182 185 197 195 194 195 196 184 187 187 191 189 186 181 191 188 176 156 156 167 166 172 185 193 189 172 164 175 181 191 207 217 231 255 268 271 270 266 270 270 264 266 267 271 268 275 273 272 271 271 275 277 278 282 285 290 296 299 301 293 292 286 283 284 282 282
117 136 142 148 153 152 148 148 154 162 167 159 157 158 165 165 163 168 175 183 194 198 198 199 203 197 187 190 189 192 192 190 194 198 190 186 179 174 153 156 180 185 183 165 167 163 170 191 200 210 229 234 251 267 268 265 260 260 259 257 258 265 267 268 273 277 276 273 278 281 281 280 282 288 295 300 303 305 296 292 297 302 303 305 308
102 105 129 133 131 130 142 158 167 165 156 154 151 161 170 173 178 165 179 193 201 203 204 201 195 184 186 191 193 193 197 194 198 195 186 183 140 143 155 163 170 179 177 172 158 174 168 204 202 207 221 231 238 251 251 250 245 247 246 241 248 252 259 268 271 274 279 278 276 278 284 287 291 296 301 305 305 307 310 315 315 308 304 302 311
146 138 125 131 149 159 161 164 158 152 148 150 151 160 173 180 171 164 197 205 205 192 194 193 190 190 194 196 195 192 195 199 196 185 162 163 159 165 148 157 163 182 166 163 148 161 167 209 226 227 226 227 226 236 249 247 242 238 239 237 238 241 249 256 261 267 272 277 286 286 288 291 296 301 304 307 311 313 313 312 309 303 298 300 307
101 123 139 136 144 153 140 138 148 134 138 149 161 170 178 171 173 195 209 209 185 180 189 193 195 199 196 190 190 194 193 189 174 159 166 172 141 144 147 155 173 169 152 146 148 182 209 218 221 213 221 226 231 233 237 247 242 238 237 235 231 237 238 250 258 260 267 276 281 283 287 294 301 307 310 312 313 313 314 313 302 301 305 311 315
141 143 167 148 147 157 164 159 136 129 148 153 164 175 182 183 192 212 206 182 192 190 190 194 193 190 188 187 188 184 183 172 174 177 173 173 149 147 148 155 165 146 142 155 177 195 206 222 222 224 215 215 216 227 231 233 240 239 238 238 239 240 247 252 258 268 269 274 277 281 290 300 305 309 312 313 313 315 316 305 307 313 315 318 322
144 147 157 167 161 161 160 153 127 138 152 165 171 179 189 191 212 215 191 190 191 190 181 182 187 190 187 189 187 183 178 177 174 169 170 166 169 156 144 164 165 166 169 179 199 189 202 212 216 225 214 205 206 213 231 229 232 237 240 240 243 247 252 252 256 261 266 270 277 287 295 301 309 313 312 313 314 315 308 309 313 315 318 321 316
153 152 155 170 180 177 172 154 141 145 162 179 187 183 190 204 222 201 191 187 182 171 174 186 192 193 193 187 174 179 179 175 171 163 162 168 158 161 169 177 161 183 188 189 198 186 194 205 209 211 208 204 198 207 215 231 232 238 240 243 247 250 251 255 259 262 264 265 272 286 300 307 309 311 312 315 315 308 306 307 310 314 319 312 310
123 131 153 180 160 92 151 178 155 157 176 190 200 194 195 217 216 199 191 175 168 171 185 197 196 196 192 170 171 166 161 164 168 171 180 174 159 165 176 170 173 187 189 192 195 188 194 199 210 210 208 205 202 199 215 219 233 238 240 240 240 245 254 259 259 260 260 266 277 293 301 304 306 307 308 303 296 296 299 305 309 313 313 306 304
185 184 147 148 168 195 212 208 217 189 184 194 203 215 223 229 173 180 163 162 169 184 196 199 200 195 172 170 175 168 166 156 170 172 183 182 172 177 184 180 178 188 190 192 192 192 191 198 204 205 200 201 205 210 209 215 210 224 219 225 233 246 254 257 260 258 260 268 277 281 285 291 297 298 295 290 292 296 298 293 294 305 301 294 296
199 180 157 160 171 201 215 217 228 219 193 201 208 221 227 233 221 144 157 161 180 191 198 204 202 184 167 171 175 180 171 168 180 182 180 185 186 183 188 195 185 184 174 188 185 190 198 195 197 187 190 203 213 210 212 207 215 210 218 216 230 229 246 256 256 240 220 192 232 279 290 287 274 275 280 274 268 271 279 287 289 289 283 285 297
181 182 173 190 196 204 215 215 228 221 199 203 214 222 222 219 209 162 161 177 197 201 207 207 183 151 177 163 182 177 185 178 174 187 211 198 184 182 193 203 203 185 187 184 178 199 199 199 190 192 181 204 206 215 213 212 218 217 214 218 220 242 245 263 234 222 144 186 214 260 265 272 264 266 276 278 278 281 285 287 276 265 282 294 293
197 168 188 208 213 212 221 227 238 228 208 215 219 223 216 207 190 172 170 193 204 194 201 204 178 167 177 155 186 186 184 188 170 187 191 221 225 217 217 197 186 199 212 221 211 204 184 172 192 207 193 199 204 206 229 231 236 234 237 243 250 249 253 251 251 235 126 165 257 261 259 263 268 265 273 279 286 290 291 296 294 301 301 289 293
197 183 200 209 221 224 236 248 248 234 229 234 238 232 201 189 184 180 183 199 186 198 203 208 189 198 190 172 167 181 177 190 178 168 180 199 221 231 228 228 227 207 211 220 227 229 222 207 191 200 214 225 236 243 246 248 247 246 247 250 254 258 257 262 235 112 3 250 269 258 260 255 253 257 261 268 285 291 293 296 299 302 293 295 301